This is the latest recevied weather packets stored in our database for station/object KB2AHZ. If no packets are shown the sender has not sent any weather packets the latest 10 day(s).
| Time | Temp. | Humidity | Pressure | Rain* | Wind** | Luminosity | Snow |
|---|---|---|---|---|---|---|---|
| 1777847785 | 16.67° C | 40% | 1016.6 hPa | 0 mm | - | 41 W/m² | - |
| 1777847480 | 16.67° C | 35% | 1016.5 hPa | 0 mm | - | 43 W/m² | - |
| 1777847178 | 17.22° C | 36% | 1016.4 hPa | 0 mm | - | 44 W/m² | - |
| 1777846875 | 17.22° C | 38% | 1016.4 hPa | 0 mm | - | 46 W/m² | - |
| 1777846574 | 17.78° C | 35% | 1016.4 hPa | 0 mm | - | 96 W/m² | - |
| 1777846271 | 18.33° C | 37% | 1016.5 hPa | 0 mm | - | 77 W/m² | - |
| 1777845968 | 18.33° C | 34% | 1016.4 hPa | 0 mm | - | 221 W/m² | - |
| 1777845664 | 18.33° C | 33% | 1016.6 hPa | 0 mm | - | 235 W/m² | - |
| 1777845361 | 17.78° C | 34% | 1016.6 hPa | 0 mm | - | 254 W/m² | - |
| 1777845057 | 17.78° C | 32% | 1016.6 hPa | 0 mm | - | 273 W/m² | - |
| 1777844756 | 18.33° C | 33% | 1016.5 hPa | 0 mm | - | 290 W/m² | - |
| 1777844452 | 18.33° C | 35% | 1016.7 hPa | 0 mm | - | 309 W/m² | - |
| 1777844151 | 18.33° C | 35% | 1016.7 hPa | 0 mm | - | 320 W/m² | - |
| 1777843847 | 18.33° C | 35% | 1016.9 hPa | 0 mm | - | 347 W/m² | - |
| 1777843545 | 18.33° C | 33% | 1016.6 hPa | 0 mm | - | 367 W/m² | - |
| 1777843242 | 18.33° C | 36% | 1016.6 hPa | 0 mm | - | 385 W/m² | - |
| 1777842939 | 18.33° C | 32% | 1016.6 hPa | 0 mm | - | 404 W/m² | - |
| 1777842634 | 18.33° C | 32% | 1016.5 hPa | 0 mm | - | 428 W/m² | - |
| 1777842332 | 18.89° C | 34% | 1016.5 hPa | 0 mm | - | 448 W/m² | - |
| 1777842027 | 18.89° C | 33% | 1016.8 hPa | 0 mm | - | 465 W/m² | - |
| 1777841724 | 18.33° C | 33% | 1016.8 hPa | 0 mm | - | 481 W/m² | - |
| 1777841421 | 17.78° C | 32% | 1016.9 hPa | 0 mm | - | 503 W/m² | - |
| 1777841118 | 17.78° C | 34% | 1016.9 hPa | 0 mm | - | 523 W/m² | - |
| 1777840815 | 18.33° C | 34% | 1016.9 hPa | 0 mm | - | 537 W/m² | - |
| 1777840512 | 18.89° C | 33% | 1016.9 hPa | 0 mm | - | 553 W/m² | - |
* Rain latest hour (hover to see other rain measurements)
** Current wind speed in m/s (hover to see current wind gust speed)